[[{"header":{"parameterUnit":"m.s-1","parameterCategory":1,"la1":30.2991,"la2":30.254,"lo1":-89.0895,"lo2":-89.0444,"dy":0.0017,"dx":0.0017,"nx":28,"ny":28,"refTime":"2024-03-09T09:00:00:Z","depth":0,"parameterNumber":2,"parameterNumberName":"U-component_of_WINDS"},"data":[0,0,0,0,0,0,0,0,0,0,0,0,0,0,0,0,0,0,0,0,0,0,0,0,0,0,0,0,0,0,0,0,0,0,0,0,0,0,0,0,0,0,0,0,0,0,0,0,0,0,0,0,0,0,0,0,0,0,2.661,2.661,0,2.6596,2.6596,2.6596,2.6558,2.6558,2.6557,2.6556,2.6542,2.6542,2.6543,0,0,0,0,0,0,0,0,0,0,0,0,0,2.6604,2.6604,2.661,2.661,2.6609,2.6596,2.6596,2.6596,2.6559,2.6558,2.6557,2.6556,2.6542,2.6542,2.6543,0,0,0,0,0,0,0,0,0,0,0,0,0,2.66,2.6604,2.661,2.6589,2.6587,2.6596,2.6596,2.6596,2.6559,2.6558,2.6556,2.6555,2.6542,2.6542,2.6543,2.657,0,0,2.6544,2.6545,0,0,0,0,0,0,0,0,2.66,2.66,2.6592,2.6591,2.6588,2.6578,2.6589,2.6587,2.6559,2.657,2.6556,2.6555,2.6555,2.6554,2.6554,2.657,2.6569,2.6544,2.6545,2.6545,2.6545,0,0,0,0,0,0,0,2.6601,2.6601,2.6604,2.6592,2.659,2.6581,2.6579,2.6588,2.6569,2.6569,2.6566,2.6565,2.6553,2.6554,2.6554,2.6569,2.6544,2.6545,2.6545,2.6545,2.6607,2.6608,0,0,0,0,0,0,2.6604,2.6601,2.6605,2.6604,2.6592,2.6582,2.658,2.6582,2.6569,2.6566,2.6566,2.6563,2.6553,2.6553,2.6553,2.6585,2.6545,2.6545,2.6546,2.6606,2.6607,2.6609,0,0,0,0,0,0,2.6604,2.6605,2.6605,2.6602,2.6601,2.6583,2.6587,2.6583,2.6583,2.6567,2.6563,2.657,2.6552,2.6552,2.6566,2.6584,2.6546,2.6546,2.6604,2.6606,2.6608,2.6648,0,0,0,0,0,0,2.6604,2.6605,2.6615,2.6602,2.6602,2.6619,2.6588,2.6583,2.6584,2.658,2.6569,2.6566,2.6551,2.6566,2.6567,2.6584,2.6547,2.6603,2.6605,2.6607,2.6645,2.6651,2.6657,0,0,0,0,0,2.6604,2.6627,2.6616,2.6616,2.6614,2.662,2.662,2.6602,2.6586,2.6596,2.6586,2.6567,2.6582,2.6568,2.6569,2.6586,2.6601,2.6604,2.6607,2.6643,2.665,2.6657,0,0,0,0,0,0,2.6641,2.6624,2.6612,2.6631,2.6628,2.6614,2.6626,2.661,2.6611,2.6607,2.6585,2.6583,2.6601,2.6595,2.6579,2.6612,2.6589,2.6592,2.6615,2.6622,2.6628,2.6628,2.6547,0,0,0,0,0,2.6652,2.6658,2.6643,2.6662,2.666,2.6644,2.6646,2.6633,2.6628,2.6626,2.6616,2.6612,2.6616,2.6619,2.6621,2.6645,2.6642,2.6657,2.6663,2.6668,2.667,2.6683,2.6689,2.6618,2.6618,2.6618,0,0,2.6673,2.6665,2.667,2.6669,2.6664,2.6672,2.6642,2.6651,2.6656,2.6627,2.664,2.6633,2.6627,2.6646,2.6654,2.6642,2.669,2.6671,2.6675,2.6675,2.6686,2.6693,2.6699,2.662,2.662,2.662,0,0,2.6716,2.6711,2.6726,2.6722,2.6716,2.6705,2.6708,2.6697,2.6692,2.6705,2.6683,2.6689,2.6696,2.6693,2.6692,2.6736,2.6718,2.6737,2.6766,2.6778,2.6784,2.6789,2.6804,2.681,2.674,2.674,2.674,0,2.6744,2.6754,2.6735,2.6746,2.6746,2.6721,2.6736,2.6733,2.6728,2.6729,2.6715,2.6724,2.6718,2.6736,2.6747,2.6747,2.6751,2.6738,2.6785,2.6789,2.6794,2.6808,2.6814,2.6743,2.6742,2.6742,2.6742,0,2.6788,2.6796,2.6809,2.6805,2.6807,2.6819,2.6803,2.6807,2.6795,2.6785,2.6799,2.6791,2.6792,2.6796,2.6783,2.6813,2.6805,2.6789,2.6764,2.6803,2.6816,2.6822,2.6746,2.6745,2.6744,2.6744,0,0,2.6853,2.684,2.6845,2.6843,2.6835,2.684,2.6852,2.6854,2.6858,2.6856,2.6865,2.6872,2.6857,2.6857,2.6844,2.6855,2.689,2.6837,2.6836,2.6847,2.6922,2.6934,2.6941,2.6879,2.688,2.6881,2.6922,0,2.6894,2.6913,2.6898,2.692,2.6927,2.6904,2.6914,2.6911,2.6902,2.6907,2.6898,2.6904,2.6883,2.6883,2.6893,2.6884,2.6905,2.688,2.6888,2.6888,2.6889,2.6948,2.696,2.7,2.6928,2.6928,2.6929,0,2.6943,2.6944,2.6967,2.6958,2.6961,2.697,2.6971,2.6976,2.6971,2.6965,2.6965,2.6949,2.6961,2.6938,2.6953,2.6937,2.6939,2.6936,2.6937,2.6936,2.691,2.6948,2.7012,2.7018,2.6937,2.6936,2.6936,0,2.6988,2.6995,2.701,2.7009,2.6999,2.7006,2.7003,2.6997,2.6999,2.7,2.7001,2.7003,2.7004,2.7005,2.6991,2.6976,2.7009,2.6984,2.7004,2.7004,2.7011,2.701,2.7076,2.7013,2.7013,2.7013,2.7013,0,2.7035,2.705,2.703,2.7039,2.7056,2.7038,2.7055,2.7049,2.7044,2.7052,2.7032,2.704,2.702,2.7026,2.7015,2.703,2.7031,2.7026,2.7022,2.7027,2.7028,2.7028,2.7024,2.7015,2.7014,2.7014,2.7014,0,2.7087,2.7074,2.7089,2.7079,2.7077,2.709,2.7081,2.7089,2.708,2.709,2.7092,2.7078,2.7084,2.707,2.7073,2.7066,2.7087,2.708,2.7089,2.7086,2.7106,2.7104,2.7173,2.7181,2.7114,2.7115,2.7116,0,2.7118,2.7129,2.712,2.7124,2.7121,2.7128,2.713,2.7114,2.7117,2.7113,2.7122,2.7126,2.7129,2.714,2.713,2.7133,2.7125,2.7149,2.7125,2.713,2.7125,2.7125,2.7126,2.7154,2.7155,2.7155,2.7156,0,2.7173,2.7166,2.717,2.7172,2.7175,2.7176,2.7176,2.718,2.7162,2.7167,2.7173,2.7175,2.718,2.7184,2.7185,2.7181,2.7166,2.7164,2.7168,2.7173,2.7177,2.7175,2.7102,2.7162,2.7161,2.7161,2.716,2.716,2.7215,2.7224,2.7219,2.7225,2.7223,2.7223,2.723,2.7223,2.7227,2.723,2.722,2.7228,2.7225,2.7224,2.7222,2.7229,2.7218,2.7225,2.7226,2.7228,2.7231,2.7177,2.7229,2.7229,2.7229,2.7229,2.7228,0,2.7269,2.7265,2.727,2.727,2.7275,2.726,2.7259,2.7264,2.7271,2.7269,2.7272,2.728,2.7284,2.7276,2.7279,2.7286,2.7279,2.7287,2.7286,2.7286,2.7241,2.7236,2.7293,2.7293,2.7293,2.7293,2.7293,2.7293,2.7297,2.7312,2.7305,2.7319,2.7315,2.7323,2.7324,2.7324,2.7322,2.7332,2.7335,2.733,2.7325,2.7328,2.7332,2.733,2.7332,2.7343,2.7337,2.7295,2.7289,2.7283,2.7279,2.7343,2.7343,2.7382,2.7382,2.7382]},{"header":{"parameterUnit":"m.s-1","parameterCategory":1,"la1":30.2991,"la2":30.254,"lo1":-89.0895,"lo2":-89.0444,"dy":0.0017,"dx":0.0017,"nx":28,"ny":28,"refTime":"2024-03-09T09:00:00:Z","depth":0,"parameterNumber":3,"parameterNumberName":"V-component_of_WINDS"},"data":[0,0,0,0,0,0,0,0,0,0,0,0,0,0,0,0,0,0,0,0,0,0,0,0,0,0,0,0,0,0,0,0,0,0,0,0,0,0,0,0,0,0,0,0,0,0,0,0,0,0,0,0,0,0,0,0,0,0,-4.6782,-4.6783,0,-4.6886,-4.6887,-4.6888,-4.6887,-4.6885,-4.6884,-4.6883,-4.6983,-4.6987,-4.6991,0,0,0,0,0,0,0,0,0,0,0,0,0,-4.6578,-4.6581,-4.6781,-4.6783,-4.6784,-4.6885,-4.6887,-4.6888,-4.6887,-4.6885,-4.6884,-4.6882,-4.6982,-4.6986,-4.6991,0,0,0,0,0,0,0,0,0,0,0,0,0,-4.6672,-4.6583,-4.6781,-4.6796,-4.6798,-4.6885,-4.6887,-4.6889,-4.6887,-4.6885,-4.6883,-4.6881,-4.698,-4.6986,-4.6992,-4.7069,0,0,-4.701,-4.7012,0,0,0,0,0,0,0,0,-4.6667,-4.668,-4.6792,-4.6795,-4.6798,-4.6871,-4.6852,-4.6949,-4.6888,-4.6853,-4.6883,-4.688,-4.6947,-4.6955,-4.6979,-4.7074,-4.7078,-4.701,-4.7014,-4.7016,-4.7018,0,0,0,0,0,0,0,-4.666,-4.6675,-4.6822,-4.6794,-4.6797,-4.6796,-4.6807,-4.687,-4.691,-4.6856,-4.6856,-4.6869,-4.6948,-4.6974,-4.6982,-4.7079,-4.701,-4.7015,-4.7019,-4.7021,-4.7245,-4.7248,0,0,0,0,0,0,-4.6651,-4.667,-4.6819,-4.6826,-4.6726,-4.6801,-4.6814,-4.685,-4.6909,-4.6917,-4.6871,-4.6869,-4.6965,-4.6975,-4.6985,-4.7082,-4.7016,-4.7022,-4.7025,-4.7243,-4.7246,-4.7248,0,0,0,0,0,0,-4.6647,-4.6665,-4.6815,-4.6748,-4.6767,-4.6807,-4.6847,-4.6853,-4.6878,-4.6921,-4.6927,-4.689,-4.6963,-4.6977,-4.7049,-4.7085,-4.7024,-4.703,-4.724,-4.7244,-4.7247,-4.7275,0,0,0,0,0,0,-4.6641,-4.6663,-4.6694,-4.6749,-4.6771,-4.6879,-4.6849,-4.6856,-4.6889,-4.6888,-4.694,-4.6947,-4.6963,-4.7041,-4.7055,-4.7092,-4.7034,-4.7237,-4.7242,-4.7246,-4.7271,-4.7279,-4.7286,0,0,0,0,0,-4.6634,-4.6695,-4.6695,-4.6713,-4.681,-4.6881,-4.6893,-4.6912,-4.6892,-4.6923,-4.6951,-4.6945,-4.7079,-4.7048,-4.7064,-4.7104,-4.7235,-4.724,-4.7246,-4.7267,-4.7277,-4.7285,0,0,0,0,0,0,-4.664,-4.6702,-4.6703,-4.6784,-4.6828,-4.688,-4.692,-4.6921,-4.6969,-4.6965,-4.6985,-4.6997,-4.707,-4.7093,-4.7058,-4.7183,-4.7154,-4.7163,-4.7165,-4.7175,-4.7182,-4.7175,-4.7039,0,0,0,0,0,-4.6652,-4.6706,-4.6756,-4.6823,-4.6845,-4.6879,-4.691,-4.6922,-4.6966,-4.6984,-4.7016,-4.7058,-4.711,-4.7143,-4.7193,-4.7274,-4.7286,-4.7309,-4.7317,-4.7323,-4.733,-4.7377,-4.7389,-4.7266,-4.7266,-4.7266,0,0,-4.6674,-4.6715,-4.6748,-4.6826,-4.686,-4.6915,-4.6894,-4.6952,-4.6993,-4.6992,-4.7064,-4.7089,-4.7137,-4.7215,-4.7251,-4.7237,-4.7367,-4.733,-4.7334,-4.7339,-4.7384,-4.7395,-4.7406,-4.727,-4.7269,-4.7269,0,0,-4.6745,-4.6781,-4.6842,-4.6878,-4.6933,-4.6955,-4.697,-4.7024,-4.7042,-4.7114,-4.7116,-4.7163,-4.7251,-4.7287,-4.7316,-4.7404,-4.7401,-4.7419,-4.7458,-4.7503,-4.7513,-4.7522,-4.7555,-4.7566,-4.7426,-4.7426,-4.7426,0,-4.6766,-4.6851,-4.6872,-4.6932,-4.6967,-4.6972,-4.7034,-4.7067,-4.7134,-4.7157,-4.7142,-4.7255,-4.7287,-4.7375,-4.7397,-4.742,-4.7437,-4.7413,-4.751,-4.7519,-4.7528,-4.7559,-4.7571,-4.7428,-4.7428,-4.7428,-4.7428,0,-4.6875,-4.6933,-4.6976,-4.7044,-4.7084,-4.7144,-4.7174,-4.7211,-4.722,-4.7244,-4.7318,-4.7358,-4.7418,-4.7439,-4.7446,-4.7528,-4.7518,-4.7506,-4.7478,-4.7541,-4.7571,-4.7583,-4.7431,-4.7431,-4.743,-4.7429,0,0,-4.695,-4.7033,-4.7048,-4.708,-4.7142,-4.7187,-4.7248,-4.7309,-4.7341,-4.7387,-4.7439,-4.7515,-4.7506,-4.7539,-4.7551,-4.7591,-4.766,-4.7574,-4.7575,-4.759,-4.7755,-4.7764,-4.7778,-4.7659,-4.7661,-4.7663,-4.7751,0,-4.7028,-4.7139,-4.7162,-4.7258,-4.7313,-4.732,-4.7373,-4.7417,-4.7441,-4.7491,-4.7517,-4.7572,-4.7554,-4.7575,-4.7614,-4.7643,-4.7693,-4.7637,-4.7707,-4.7709,-4.7696,-4.7793,-4.7803,-4.7884,-4.7763,-4.7765,-4.7766,0,-4.7134,-4.7187,-4.7289,-4.7347,-4.7371,-4.7419,-4.7478,-4.7525,-4.7575,-4.759,-4.7629,-4.7637,-4.77,-4.7669,-4.7757,-4.7718,-4.7748,-4.7766,-4.777,-4.7778,-4.7742,-4.7805,-4.7911,-4.7923,-4.7785,-4.7783,-4.7782,0,-4.7181,-4.7277,-4.7352,-4.7379,-4.7448,-4.7482,-4.7511,-4.7559,-4.7595,-4.7646,-4.767,-4.7726,-4.7757,-4.78,-4.7823,-4.7798,-4.791,-4.788,-4.7924,-4.7924,-4.7948,-4.7946,-4.8061,-4.7965,-4.7965,-4.7965,-4.7964,0,-4.7266,-4.7329,-4.7375,-4.7421,-4.7491,-4.7517,-4.7586,-4.7615,-4.7658,-4.7709,-4.7717,-4.7764,-4.7791,-4.7843,-4.786,-4.7932,-4.7945,-4.7959,-4.7963,-4.7959,-4.7957,-4.7979,-4.7974,-4.7968,-4.7967,-4.7967,-4.7966,0,-4.733,-4.7364,-4.7446,-4.7506,-4.7522,-4.7572,-4.7622,-4.7667,-4.7693,-4.7758,-4.7774,-4.7814,-4.7875,-4.7903,-4.7976,-4.7989,-4.807,-4.8069,-4.8054,-4.8056,-4.81,-4.8096,-4.8234,-4.8254,-4.8143,-4.8144,-4.8145,0,-4.7383,-4.7432,-4.7499,-4.7536,-4.7567,-4.7625,-4.7663,-4.769,-4.7729,-4.7792,-4.7829,-4.7891,-4.7942,-4.8039,-4.8074,-4.8131,-4.8133,-4.8177,-4.8141,-4.8136,-4.8135,-4.8133,-4.8138,-4.8183,-4.8185,-4.8185,-4.8186,0,-4.7474,-4.7489,-4.7545,-4.7608,-4.7655,-4.7704,-4.7753,-4.7782,-4.7817,-4.786,-4.7925,-4.7965,-4.8043,-4.8105,-4.8165,-4.8194,-4.8196,-4.8198,-4.8211,-4.8208,-4.8198,-4.8206,-4.8074,-4.8194,-4.8193,-4.8193,-4.8192,-4.8192,-4.7535,-4.7581,-4.7636,-4.7699,-4.7739,-4.7786,-4.7832,-4.7865,-4.792,-4.7988,-4.8,-4.8069,-4.8119,-4.8201,-4.8232,-4.8286,-4.8275,-4.8294,-4.8299,-4.8304,-4.8308,-4.8189,-4.8296,-4.8296,-4.8296,-4.8296,-4.8296,0,-4.7628,-4.7665,-4.7723,-4.7793,-4.7843,-4.7844,-4.7899,-4.794,-4.8001,-4.8049,-4.8101,-4.8176,-4.8237,-4.8277,-4.8338,-4.8374,-4.8376,-4.8389,-4.8387,-4.8394,-4.8313,-4.8296,-4.8386,-4.8386,-4.8386,-4.8386,-4.8386,-4.8386,-4.7682,-4.776,-4.7782,-4.788,-4.7916,-4.7986,-4.8018,-4.8061,-4.8099,-4.8184,-4.8236,-4.8263,-4.8308,-4.8374,-4.8429,-4.844,-4.8462,-4.8476,-4.8485,-4.8409,-4.8399,-4.839,-4.8375,-4.848,-4.848,-4.8563,-4.8563,-4.8564]}]]